Погода в Мелчхи

Россия / Чеченская Республика     43°18′19″N   46°11′14″E
темп.,
°C
ветер,
м/с
пор.,
м/с
влажн.,
%
обл.,
%
осадки,
мм/ч
давл.,
гПа
погр.,
м
13 апреля, вт
вт1300:00+10зсз118048 0.0 102115
03:00+11з237972 0.0 102277
06:00+10ссв128393 0.0 1022110
09:00+13ссв227162 0.0 1021641
12:00+15сз126474 0.0 1020809
15:00+18зсз3348100 0.1 10181484
18:00+13зюз3571100 0.0 1018259
21:00+11юз4881100 0.0 1019219
14 апреля, ср
ср1400:00+10юз228324 0.0 101820
03:00+9зюз2291100 0.0 101732
06:00+10зюз248995 0.0 1017172
09:00+12з4674100 0.0 1017699
12:00+13з5769100 0.1 1017980
15:00+12юз3673100 0.7 1017662
18:00+11юз4878100 1.1 1017247
21:00+11юз3774100 1.1 1017140
15 апреля, чт
чт1500:00+10юз237499 0.0 101749
03:00+8юз478397 0.0 1017129
06:00+9юз397912 0.0 1017203
09:00+15зсз58551 0.0 1017929
12:00+19зсз67400 0.0 10151586
15:00+20сз57325 0.0 10151986
18:00+16сз22500 0.0 101517
21:00+13ююз3356100 0.0 101728
16 апреля, пт
пт1600:00+12ююз335887 0.0 101625
03:00+11ююз226225 0.0 101616
06:00+11юз226571 0.0 101718
09:00+17сз2149100 0.0 1017573
12:00+20ссв3238100 0.0 10161336
15:00+21всв333560 0.0 10151549
18:00+18всв365193 0.0 1015124
21:00+13юв22645 0.0 101619
17 апреля, сб
сб1700:00+12юз227395 0.2 101721
03:00+12ююз227361 0.2 101615
06:00+12з237461 0.0 101749
09:00+15з7868100 0.0 10211008
12:00+14зсз4572100 0.1 10211019
15:00+13сз3476100 0.3 1022719
18:00+12зюз3481100 0.2 1023255
21:00+11юз1184100 0.2 102265